7 * 24
多渠道服务支持
STARLINK-36665(NORAD编号68968)是SpaceX星链(Starlink)星座旗下的低轨通信卫星,隶属于第二代星链卫星组网计划。作为星链全球互联网星座的组成部分,它运行在近地轨道,主要为全球偏远地区、灾害现场等场景提供低延迟高速宽带接入服务。依托星链星座的轨道设计,它配合其他卫星实现全球覆盖,支持物联网、应急通信等多类应用。截至2026年,该卫星仍在轨运行,是SpaceX庞大星链星座(计划组网超4万颗)中的一员,助力实现全球无缝互联的卫星通信网络布局。
美国
(US)
| 数据来源 | 国际轨道数据 |
| 星历时间: | 2026-09-13T07:49:52+0800 11小时前 查看轨道信息 |
| 半长轴: | 6840.862km |
| 偏心率: | 0.000128 |
| 轨道倾角: | 53.158° |
| 近地点辐角 | 96.086° |
| 升交点赤经 | 110.752° |
| 平近点角 | 264.029° |
| 近地点: | 461.849km |
| 远地点: | 463.601km |
| 周期: | 93.848分钟 |
| 每日圈数: | 15.34393 |